Regional Weather Roundup
Issued by NWS

Home | Current Version | Previous Version | Text Only | Print | Product List | Glossary Off
Versions: 1 2 3 4 5 6 7 8 9 10 11 12 13 14 15 16 17 18 19 20 21 22 23 24 25 26 27 28 29 30 31 32 33 34 35 36 37 38 39 40 41 42 43 44 45 46 47 48 49 50

000
ASUS43 KFSD 251402
RWRSD

WEATHER ROUNDUP FOR SOUTH DAKOTA
NATIONAL WEATHER SERVICE SIOUX FALLS SD
900 AM CDT TUE APR 25 2017

NOTE: "FAIR" INDICATES FEW OR NO CLOUDS BELOW 12,000 FEET WITH NO
SIGNIFICANT WEATHER AND/OR OBSTRUCTIONS TO VISIBILITY.


SDZ001>005-009-010-012>017-251500-
NORTHWEST AND NORTH CENTRAL SOUTH DAKOTA

CITY           SKY/WX    TMP DP  RH WIND       PRES   REMARKS
BUFFALO          N/A     29  27  92 NE20      29.70R WCI  16
FAITH            N/A     30  30 100 N16       29.74R WCI  19
MOBRIDGE       CLOUDY    33  27  78 N17       29.73R HAZE    WCI  22
$$

SDZ012>016-024>037-041>051-057-063-072>074-251500-
SOUTHWEST AND SOUTH CENTRAL SOUTH DAKOTA

CITY           SKY/WX    TMP DP  RH WIND       PRES   REMARKS
RAPID CTY ARPT LGT SNOW  30  28  92 NE15      29.69R VSB 3/4 WCI  19
PIERRE         CLOUDY    34  32  92 N16       29.70R WCI  24
CUSTER         SNOW      26  23  88 NE12      29.59R VSB 1/2 WCI  16
ELLSWORTH AFB  LGT SNOW  30  30 100 NE13      29.69  VSB 3/4 WCI  20
PHILIP         CLOUDY    34  31  88 NE15      29.72R WCI  24
PINE RIDGE     CLOUDY    35  34  96 NE15      29.63S WCI  25
SPEARFISH      SNOW      28  28 100 MISG      29.70R VSB<1/4
WINNER         CLOUDY    37  34  89 N14       29.69R
$$

SDZ004>011-016>023-039-040-251500-
NORTHEAST SOUTH DAKOTA

CITY           SKY/WX    TMP DP  RH WIND       PRES   REMARKS
ABERDEEN       CLOUDY    33  28  81 N24       29.71R WCI  20
WATERTOWN      CLOUDY    34  33  96 N16       29.62R WCI  24
BROOKINGS      CLOUDY    36  34  92 N13       29.62R
SISSETON         N/A     34  32  92 N24G31    29.65R WCI  21
$$

SDZ017-020-022-023-036>040-048>070-251500-
SOUTHEAST SOUTH DAKOTA

CITY           SKY/WX    TMP DP  RH WIND       PRES   REMARKS
SIOUX FALLS    CLOUDY    41  38  89 NE5       29.64R
HURON          CLOUDY    35  33  92 N16       29.69R WCI  25
CHAMBERLAIN    CLOUDY    36  34  91 N13G18    29.70R
MITCHELL       CLOUDY    37  34  89 N17G25    29.67R
YANKTON        CLOUDY    39  36  87 NW14      29.62F
$$

ABBREVIATIONS USED IN REMARKS
   TC - TEMPERATURE IN CELSIUS
  WCI - WIND CHILL INDEX
   HX - HEAT INDEX
  VSB - VISIBILITY





USA.gov is the U.S. government's official web portal to all federal, state and local government web resources and services.